Flag Weather past 2 weeks in Cheltenham, England, United Kingdom

Now
47 °F

Cool.


Feels Like: 42 °F
Forecast: 44 / 52 °F
Wind: 10 mph from East

Location: Little Rissington

Current Time: Nov 28, 2014 at 5:47:31 AM

Latest Report: Nov 28, 2014 at 5:00 AM


Visibility: 1 mi

Pressure: 29.57 "Hg

Humidity: 100%

Dew point: 47 °F

Location of CheltenhamLocation

Historic Weather in Cheltenham — Graph

°F

Cheltenham temperature yesterday

Maximum temperature yesterday: 46 °F (at 2:00 PM)
Minimum temperature yesterday: 43 °F (at 3:00 AM)
Average temperature yesterday: 44 °F

Past Weeks' High & Low Weather Summary

 TemperatureHumidityPressure
High56 °F (Nov 22, 2:00 PM)100% (Nov 13, 4:00 AM)30.35 "Hg (Nov 13, 4:00 AM)
Low32 °F (Nov 24, 11:00 PM)72% (Nov 14, 2:00 PM)29.35 "Hg (Nov 14, 6:00 AM)
Average44 °F98%29.85 "Hg
* Reported Nov 13 4:00 AM — Nov 28 4:00 AM, Cheltenham, Weather by CustomWeather, © 2014

Note: Actual official high and low records may vary slightly from our data, if they occured in-between our weather recording intervals... More about our weather records

Advertising

Cheltenham weather history for previous 24 hours

 ConditionsComfort  
Time TempWeatherWind HumidityBarometerVisibility
4:00 AM
Nov 28
47 °FCool.10 mph100%29.57 "Hg2 mi
3:00 AM47 °FCool.10 mph100%29.56 "Hg1 mi
2:00 AM46 °FCool.12 mph100%29.56 "Hg1 mi
1:00 AM46 °FCool.10 mph100%29.56 "Hg1 mi
12:00 AM46 °FCool.12 mph100%29.56 "Hg0 mi
11:00 PM
Nov 27
45 °FQuite cool.12 mph100%29.56 "Hg1 mi
10:00 PM44 °FQuite cool.9 mph100%29.56 "Hg1 mi
9:00 PM45 °FQuite cool.8 mph100%29.57 "Hg3 mi
8:00 PM45 °FQuite cool.8 mph100%29.57 "Hg4 mi
7:00 PM45 °FQuite cool.9 mph100%29.57 "Hg6 mi
6:00 PM44 °FQuite cool.9 mph100%29.57 "Hg3 mi
5:00 PM44 °FQuite cool.8 mph100%29.57 "Hg2 mi
4:00 PM44 °FQuite cool.8 mph100%29.57 "Hg5 mi
3:00 PM45 °FQuite cool.2 mph100%29.57 "Hg10 mi
2:00 PM46 °FCool.2 mph100%29.57 "Hg12 mi
1:00 PM45 °FCool.8 mph100%29.58 "Hg8 mi
12:00 PM44 °FQuite cool.6 mph100%29.59 "Hg5 mi
11:00 AM44 °FQuite cool.5 mph100%29.60 "Hg2 mi
10:00 AM44 °FQuite cool.7 mph100%29.61 "Hg0 mi
9:00 AM43 °FQuite cool.1 mph100%29.62 "Hg0 mi
8:00 AM43 °FQuite cool.3 mph100%29.62 "Hg0 mi
7:00 AM43 °FQuite cool.1 mph100%29.62 "Hg0 mi
6:00 AM43 °FQuite cool.1 mph100%29.63 "Hg0 mi
5:00 AM43 °FQuite cool.3 mph100%29.64 "Hg0 mi
Weather by CustomWeather, © 2014

See weather overviewHow to use our weather pages